DW3795 Weather Reports


Display with metric or nautical units.
time (UTC)temp
F
wind
direction
speed
MPH
gust
MPH
rain 1hr
in
rain 24hr
in
rain mn
in
humidity
%
barometer
mb
20210614024511 70 206 0.0 0.0 0.00 0.00 0.00 91 1013.6
20210614023015 70 206 0.0 0.0 0.00 0.00 0.00 91 1013.6
20210614021553 71 206 0.0 0.0 0.00 0.00 0.00 90 1013.4
20210614020038 71 206 0.0 0.0 0.00 0.00 0.00 89 1012.9
20210614014518 72 206 0.0 0.0 0.00 0.00 0.00 88 1012.4
20210614013011 72 206 0.0 0.0 0.00 0.00 0.00 87 1012.2
20210614011508 73 206 0.0 1.0 0.00 0.00 0.00 86 1011.8
20210614010032 74 206 0.0 1.0 0.00 0.00 0.00 85 1011.5
20210614004512 75 206 0.0 0.0 0.00 0.00 0.00 84 1011.7
20210614003010 77 206 0.0 0.0 0.00 0.00 0.00 82 1011.4
20210614001531 78 203 0.0 2.0 0.00 0.00 0.00 80 1011.2
20210614000005 80 203 0.0 1.0 0.00 0.00 0.00 78 1011.0
20210613234506 81 203 0.0 4.0 0.00 0.00 0.00 75 1010.9
20210613233011 81 196 2.0 4.0 0.00 0.00 0.00 70 1010.7
20210613231503 81 174 3.0 4.0 0.00 0.00 0.00 69 1010.7
20210613230002 82 200 2.0 4.0 0.00 0.00 0.00 68 1010.6
20210613224508 83 179 0.0 3.0 0.00 0.00 0.00 68 1010.5
20210613223211 83 139 0.0 3.0 0.00 0.00 0.00 66 1010.5
20210613221643 84 184 0.0 2.0 0.00 0.00 0.00 65 1010.5
20210613220228 84 128 0.0 3.0 0.00 0.00 0.00 65 1010.6
20210613214652 84 19 0.0 5.0 0.00 0.00 0.00 64 1010.7
20210613213152 84 146 2.0 6.0 0.00 0.00 0.00 64 1010.6
20210613211707 85 183 2.0 4.0 0.00 0.00 0.00 63 1010.9
20210613210139 84 226 2.0 5.0 0.00 0.00 0.00 64 1011.0
20210613204639 84 279 1.0 6.0 0.00 0.00 0.00 66 1011.3
20210613203115 83 171 1.0 6.0 0.00 0.00 0.00 66 1011.6
20210613201728 83 237 3.0 5.0 0.00 0.00 0.00 65 1011.9
20210613200157 83 250 1.0 4.0 0.00 0.00 0.00 67 1012.1
20210613194640 82 161 0.0 3.0 0.00 0.00 0.00 67 1012.4
20210613193046 83 29 0.0 3.0 0.00 0.00 0.00 70 1012.6
20210613191623 83 34 0.0 4.0 0.00 0.00 0.00 67 1012.6
20210613190050 82 46 0.0 3.0 0.00 0.00 0.00 70 1012.8
20210613184651 81 182 0.0 3.0 0.00 0.00 0.00 66 1013.0
20210613183111 80 340 0.0 2.0 0.00 0.00 0.00 71 1013.1
20210613181647 81 216 0.0 3.0 0.00 0.00 0.00 74 1013.1
20210613180120 80 294 0.0 4.0 0.00 0.00 0.00 70 1013.3
20210613174614 80 205 0.0 3.0 0.00 0.00 0.00 68 1013.4
20210613173129 79 170 0.0 3.0 0.00 0.00 0.00 73 1013.4
20210613171552 79 5 0.0 3.0 0.00 0.00 0.00 72 1013.7
20210613170112 78 82 0.0 2.0 0.00 0.00 0.00 75 1014.0
20210613164600 78 61 1.0 3.0 0.00 0.00 0.00 75 1014.0
20210613163050 77 309 2.0 6.0 0.00 0.00 0.00 72 1014.0
20210613161533 78 160 0.0 3.0 0.00 0.00 0.00 75 1014.1
20210613160049 77 349 0.0 3.0 0.00 0.00 0.00 73 1014.3
20210613154553 77 144 1.0 4.0 0.00 0.00 0.00 74 1014.5
20210613153106 76 136 2.0 4.0 0.00 0.00 0.00 76 1014.5
20210613151521 76 140 2.0 3.0 0.00 0.00 0.00 77 1014.6
20210613150100 75 121 0.0 2.0 0.00 0.00 0.00 79 1014.5
20210613144523 75 27 0.0 3.0 0.00 0.00 0.00 78 1014.3
20210613143118 75 173 0.0 3.0 0.00 0.00 0.00 77 1014.4
20210613141556 75 140 0.0 0.0 0.00 0.00 0.00 76 1014.4
20210613134552 74 151 0.0 2.0 0.00 0.00 0.00 80 1014.3
20210613133010 73 5 0.0 3.0 0.00 0.00 0.00 80 1014.3
20210613131504 73 20 0.0 0.0 0.00 0.00 0.00 83 1014.2
20210613130215 71 146 0.0 0.0 0.00 0.00 0.00 85 1014.3
20210613124851 70 170 0.0 0.0 0.00 0.00 0.00 88 1014.1
20210613123305 69 221 0.0 0.0 0.00 0.00 0.00 90 1014.0
20210613121630 68 325 0.0 0.0 0.00 0.00 0.00 92 1014.0
20210613120147 68 28 0.0 0.0 0.00 0.00 0.00 93 1013.9
20210613114653 67 340 0.0 0.0 0.00 0.00 0.00 93 1013.5
20210613113134 67 340 0.0 0.0 0.00 0.00 0.00 93 1013.3
20210613111627 67 340 0.0 0.0 0.00 0.00 0.00 92 1013.4
20210613110134 67 340 0.0 0.0 0.00 0.00 0.00 92 1013.1
20210613104547 67 340 0.0 0.0 0.00 0.00 0.00 91 1012.9
20210613101542 68 340 0.0 0.0 0.00 0.00 0.00 92 1012.5
20210613100057 68 340 0.0 0.0 0.00 0.00 0.00 92 1012.5
20210613094552 68 340 0.0 0.0 0.00 0.00 0.00 92 1012.6
20210613093048 68 340 0.0 0.0 0.00 0.00 0.00 91 1012.6
20210613091604 68 340 0.0 0.0 0.00 0.00 0.00 91 1012.6
20210613090100 68 340 0.0 0.0 0.00 0.00 0.00 91 1012.5
20210613084640 68 340 0.0 0.0 0.00 0.00 0.00 91 1012.4
20210613083106 68 340 0.0 0.0 0.00 0.00 0.00 91 1012.0
20210613081537 68 340 0.0 0.0 0.00 0.00 0.00 91 1012.3
20210613080024 68 340 0.0 0.0 0.00 0.00 0.00 91 1012.4
20210613074547 68 340 0.0 0.0 0.00 0.00 0.00 92 1012.4
20210613073043 68 340 0.0 0.0 0.00 0.00 0.00 91 1012.4
20210613071524 68 340 0.0 0.0 0.00 0.00 0.00 91 1012.4
20210613070045 69 340 0.0 0.0 0.00 0.00 0.00 91 1012.5
20210613064538 69 340 0.0 0.0 0.00 0.00 0.00 91 1012.6
20210613063037 69 340 0.0 0.0 0.00 0.00 0.00 91 1012.3
20210613061514 69 340 0.0 0.0 0.00 0.00 0.00 91 1012.2
20210613060016 69 340 0.0 0.0 0.00 0.00 0.00 91 1012.2
20210613054534 69 340 0.0 0.0 0.00 0.00 0.00 90 1012.3
20210613053016 69 340 0.0 0.0 0.00 0.00 0.00 90 1012.7
20210613051531 69 340 0.0 0.0 0.00 0.00 0.00 91 1013.0
20210613050011 69 340 0.0 0.0 0.00 0.00 0.00 90 1013.1
20210613044508 69 340 0.0 0.0 0.00 0.00 0.00 90 1012.8
20210613043006 70 238 0.0 0.0 0.00 0.00 0.00 90 1013.0
20210613041513 70 330 0.0 0.0 0.00 0.00 0.00 90 1013.0
20210613040013 70 76 0.0 0.0 0.00 0.01 0.00 90 1012.8
20210613034504 70 115 0.0 0.0 0.00 0.01 0.00 90 1012.9
20210613033200 70 150 0.0 0.0 0.00 0.01 0.00 90 1012.8
20210613031640 70 356 0.0 0.0 0.00 0.01 0.00 91 1012.7
20210613030259 70 350 0.0 0.0 0.00 0.01 0.00 91 1012.5